Regional Weather Roundup
Issued by NWS Cleveland, OH

Home | Current Version | Previous Version | Text Only | Print | Product List | Glossary Off
Versions: 1 2 3 4 5 6 7 8 9 10 11 12 13 14 15 16 17 18 19 20 21 22 23 24 25 26 27 28 29 30 31 32 33 34 35 36 37 38 39 40 41 42 43 44 45 46 47 48 49 50

000
ASUS41 KCLE 210402
RWRCLE
OHIO REGIONAL WEATHER ROUNDUP
NATIONAL WEATHER SERVICE CLEVELAND, OH
1200 AM EDT TUE OCT 21 2014

NOTE: "FAIR" INDICATES FEW OR NO CLOUDS BELOW 12,000 FEET WITH NO
SIGNIFICANT WEATHER AND/OR OBSTRUCTIONS TO VISIBILITY.

OHZ001>008-015>018-024>027-034-035-043-044-210500-
   NORTHWEST OHIO

CITY           SKY/WX    TMP DP  RH WIND       PRES   REMARKS
DEFIANCE       CLOUDY    53  48  83 NW7       29.90R
FINDLAY        PTCLDY    51  48  89 W8        29.87S
TOLEDO EXPRESS MOCLDY    51  48  89 NW3       29.88R
TOLEDO EXEC    CLOUDY    54  49  83 NW10      29.88R
LIMA           PTCLDY    51  48  89 NW7       29.89R
$$

OHZ009>014-019>023-028>033-038-089-210500-
   NORTHEAST OHIO

CITY           SKY/WX    TMP DP  RH WIND       PRES   REMARKS
CLE-HOPKINS    CLOUDY    52  51  97 SW6       29.87S FOG
CLE-LAKEFRONT  CLOUDY    53  51  93 SW12      29.83F
CUY CO. ARPT   NOT AVBL
LORAIN-ELYRIA  CLOUDY    52  51  97 W8        29.86S FOG
ASHTABULA      RAIN      50  49  96 SW8       29.83F FOG
AKRON-CANTON   LGT RAIN  51  48  89 SW8       29.86S FOG
WOOSTER        CLOUDY    52  50  93 W6        29.87S
MANSFIELD      CLOUDY    52  51  97 W5        29.87S FOG
YOUNGSTOWN     LGT RAIN  50  48  93 SW8       29.84F FOG
$$

OHZ042-051>053-060>062-070>072-077>081-210500-
  SOUTHWEST OHIO

CITY           SKY/WX    TMP DP  RH WIND       PRES   REMARKS
CINC-COVINGTON PTCLDY    51  47  86 CALM      29.91S
CINC-LUNKEN    PTCLDY    49  48  97 CALM      29.92R
HAMILTON       PTCLDY    50  50 100 CALM      29.92R
DAYTON         MOCLDY    53  49  86 NW7       29.91R
WRIGHT-PAT AFB NOT AVBL
DAYTON GENERAL MOCLDY    54  50  86 CALM      29.89S
WILMINGTON     CLOUDY    50  48  93 SW5       29.90S
$$

OHZ036-037-039>041-045>050-054>059-063>069-073>076-082>088-210500-
  CENTRAL AND SOUTHEAST OHIO

CITY           SKY/WX    TMP DP  RH WIND       PRES   REMARKS
COLUMBUS       PTCLDY    50  47  89 CALM      29.88S
OSU AIRPORT    FOG       48  47  96 CALM      29.89R VSB 1/4
BOLTON FIELD   CLEAR     49  49 100 W6        29.89S
RICKENBACK AFB CLEAR     48  46  93 SW6       29.88S
NEWARK         CLOUDY    50  48  93 CALM      29.88S FOG
MARION         PTCLDY    50  48  93 NW5       29.87F FOG
LANCASTER      CLEAR     49  45  86 CALM      29.88F
ZANESVILLE     MOCLDY    50  47  89 CALM      29.88F
NEW PHILLY     CLOUDY    51  49  92 CALM      29.88S
$$



USA.gov is the U.S. government's official web portal to all federal, state and local government web resources and services.